Wind_Speed
10 15 18 16 10 10 11 7 4 3 7 11 18 26 31 30 27 23 20 20 18 17 17 16 16 16 14 13 14 14 15 17 18 18 19 20 20 18 17 17 17 18 19 20 21 21 22 23 24
16 20 19 13 6 6 6 2 7 10 14 16 19 21 23 23 20 18 16 15 13 12 12 12 12 13 13 14 15 16 17 18 19 20 20 21 20 19 18 18 20 21 22 23 24 25 25 26 27
20 22 17 11 4 5 7 11 13 15 19 20 17 15 13 11 11 14 14 12 10 9 10 10 10 12 13 15 17 18 18 19 19 20 21 22 21 21 20 20 22 24 25 26 26 27 27 28 30
22 22 14 7 3 5 11 15 17 21 19 17 15 13 10 10 12 14 13 12 11 11 11 11 10 10 11 13 15 17 17 17 17 19 20 21 22 23 25 25 26 27 28 29 30 31 32 33 34
21 19 14 8 1 7 14 15 18 21 21 18 17 17 15 14 15 16 15 14 14 14 14 13 13 10 7 8 11 12 13 14 15 17 18 19 20 22 25 28 29 29 30 31 31 33 35 37 39
18 16 13 7 1 7 12 14 17 18 16 15 17 19 18 17 17 14 15 16 16 14 12 12 13 11 9 9 10 12 14 15 16 16 18 20 22 24 24 26 29 31 32 32 31 30 31 32 33
16 13 9 5 5 9 11 15 18 20 19 17 19 21 20 20 13 12 14 16 18 17 15 14 14 10 9 10 12 13 15 17 18 18 18 19 20 21 23 24 26 26 27 28 28 28 29 30 29
13 11 9 9 9 6 10 16 21 21 21 21 22 21 18 18 11 12 16 16 18 20 19 15 12 11 12 14 15 16 18 20 21 21 20 20 21 21 22 23 25 27 27 26 26 27 28 28 29
16 14 11 11 9 2 8 14 17 20 21 21 21 20 20 20 17 20 20 18 21 21 20 17 13 12 13 15 17 19 21 23 24 24 24 25 25 25 24 24 24 25 26 27 28 28 28 29 30
17 15 11 9 8 3 6 9 15 21 22 21 20 21 23 23 23 21 21 23 19 18 18 18 18 17 16 16 18 20 23 25 26 26 26 27 27 27 28 28 28 27 28 29 31 31 31 32 32
16 15 12 10 10 10 12 14 19 21 21 21 22 22 23 23 21 20 24 21 14 15 18 19 21 21 21 20 21 22 25 27 28 28 28 28 28 28 28 28 28 29 29 29 31 33 33 34 34
17 18 17 12 14 18 18 20 22 23 22 23 26 26 24 22 20 21 24 22 22 24 23 21 20 20 22 23 24 24 25 25 26 27 29 29 28 28 29 28 27 28 29 29 30 32 33 35 36
20 21 20 15 16 22 25 26 28 29 27 26 27 27 25 24 22 22 24 24 26 29 25 20 23 21 22 23 25 24 23 23 25 27 29 29 30 30 31 30 29 29 31 33 34 35 37 38 40
23 24 23 19 18 19 24 28 29 30 28 27 28 28 26 25 26 26 26 26 27 28 29 29 30 27 26 23 22 24 24 25 26 27 28 29 32 33 32 32 32 33 35 38 40 42 43 45 46
25 24 22 19 17 15 18 22 25 27 27 26 27 28 27 27 29 29 31 31 31 33 35 36 32 31 28 26 26 26 26 25 28 31 33 34 36 36 36 36 37 38 39 42 45 48 49 50 50
25 24 20 16 14 13 16 14 16 21 22 24 26 28 29 30 30 32 35 35 33 34 36 37 36 33 31 31 30 28 26 27 31 34 36 38 39 39 38 38 39 38 40 43 46 49 51 51 52
26 23 17 12 8 8 13 12 14 20 20 23 26 29 32 33 33 34 36 36 34 35 37 37 36 35 35 35 33 31 30 31 33 35 37 39 41 42 43 43 42 42 44 46 47 50 51 51 52
23 21 17 15 11 10 15 18 20 23 23 26 28 30 32 33 34 35 35 35 34 35 37 38 37 37 37 37 35 34 33 33 34 35 38 39 41 42 44 45 46 46 48 49 51 52 53 54 55
25 23 21 20 16 14 17 23 26 27 29 29 31 33 33 31 30 32 33 33 33 35 38 39 38 37 37 36 35 35 35 35 36 38 39 40 41 43 45 47 48 48 50 53 56 57 59 62 65
25 25 23 20 14 14 15 19 25 29 31 32 33 32 28 24 25 29 31 33 34 37 40 39 38 37 36 35 35 36 37 38 39 40 42 43 44 46 49 51 53 54 56 58 60 62 65 68 72
26 25 24 22 20 18 18 22 28 31 33 35 33 26 22 21 24 29 31 32 33 36 39 38 37 37 37 37 38 39 40 40 42 44 45 47 49 51 54 55 57 59 61 63 65 68 71 73 76
28 22 22 25 29 26 24 26 31 34 36 35 32 26 24 23 26 31 33 32 31 35 36 36 36 38 39 40 41 42 42 44 46 48 50 53 55 57 58 60 62 65 67 67 67 67 67 68 69
27 22 22 26 31 35 34 32 36 39 38 35 32 28 27 28 30 33 35 34 34 35 37 38 39 40 42 44 45 46 46 48 50 52 54 56 58 60 61 64 66 66 63 60 58 57 57 57 56
25 24 27 30 31 37 39 40 43 44 41 38 35 32 33 34 36 38 37 36 36 38 39 42 43 44 44 46 48 48 50 51 53 55 57 58 60 61 64 65 62 57 53 50 49 50 50 50 50
29 30 32 34 36 37 34 40 43 43 42 41 37 35 37 38 40 40 38 37 37 39 42 46 47 46 47 48 50 51 52 54 56 57 59 60 61 62 63 59 52 49 45 44 46 47 47 47 47
27 29 31 33 32 32 35 40 39 39 39 37 37 38 39 39 40 41 41 39 39 40 45 49 48 47 50 52 52 54 55 57 58 59 61 61 62 62 57 49 46 44 42 43 44 44 46 47 48
27 25 26 32 32 32 33 34 33 32 34 35 38 39 39 38 37 38 40 40 41 43 48 50 48 49 52 55 55 55 57 58 60 61 61 62 62 56 47 43 42 41 41 43 44 46 48 49 49
30 26 26 31 33 34 35 36 35 33 33 33 34 34 33 33 34 36 39 41 43 47 50 51 50 51 54 56 56 57 59 61 61 61 61 61 52 43 39 39 39 40 43 45 47 49 50 51 52
28 28 29 31 34 34 32 33 34 37 40 41 41 41 38 35 36 37 39 42 46 49 51 51 52 53 55 56 58 60 62 62 61 60 58 50 40 37 37 37 39 42 44 46 49 51 52 53 52
28 28 29 32 34 35 35 32 32 36 41 44 44 43 42 39 38 37 38 44 48 48 48 50 52 54 56 59 61 62 63 61 60 56 48 39 36 36 37 38 41 44 47 49 50 51 52 52 50
Wind_Direction
134 121 114 110 121 158 168 183 226 341 333 313 308 309 305 296 296 303 302 299 298 294 290 285 274 267 264 261 262 263 268 271 271 272 275 278 277 275 274 274 274 272 271 269 264 261 261 262 263
126 123 120 112 127 168 145 106 8 345 314 302 301 304 298 287 292 305 302 300 302 304 302 292 278 269 263 260 262 264 265 270 270 268 268 273 276 274 273 273 272 270 270 270 268 265 264 264 265
130 128 121 113 124 98 51 27 1 327 315 319 318 311 306 295 311 321 310 307 312 320 326 320 304 288 280 275 274 273 271 270 270 268 266 268 270 273 273 272 271 269 269 268 268 266 265 266 268
138 135 130 132 143 64 30 15 341 318 319 327 334 333 335 343 344 339 323 319 328 342 351 351 338 310 290 278 274 275 276 275 275 277 276 273 272 274 274 272 271 271 269 268 268 268 268 269 270
142 147 150 166 96 34 21 3 333 320 308 312 327 337 338 341 344 344 341 336 337 351 359 359 349 332 303 274 273 282 289 288 284 281 279 276 278 281 278 275 273 273 273 274 273 271 271 272 275
141 150 165 172 46 29 15 347 331 331 321 317 326 332 333 331 332 334 335 334 332 339 339 332 330 312 284 279 288 296 301 303 303 301 295 289 286 288 286 282 278 275 274 275 277 277 278 279 279
139 151 165 139 56 27 357 330 322 329 332 329 332 335 335 331 332 334 329 330 328 327 318 309 305 300 284 290 303 308 310 310 311 309 305 302 299 296 293 290 286 283 282 280 277 277 278 278 278
160 184 166 118 86 21 326 318 319 320 324 324 324 329 331 334 337 339 332 328 326 321 314 307 300 297 296 300 304 308 311 310 310 311 310 307 304 302 299 296 291 288 286 284 281 278 277 277 277
181 191 165 128 106 306 295 306 306 303 313 317 315 319 320 325 322 322 324 323 321 316 308 298 296 299 298 299 303 306 306 305 306 308 308 308 308 307 306 304 298 292 288 286 283 281 280 278 278
195 207 190 155 122 226 266 282 286 293 307 316 319 318 319 319 318 322 329 327 316 307 300 298 305 302 295 293 293 294 297 299 302 304 305 305 307 309 310 309 305 298 291 286 284 282 280 278 277
216 220 229 202 167 216 245 257 273 286 302 312 310 310 312 315 321 330 336 340 333 314 305 307 309 301 292 286 286 290 295 299 303 304 302 301 303 307 307 307 308 304 298 291 288 287 281 276 274
233 239 250 239 204 210 235 255 267 280 290 299 299 303 308 314 326 337 339 337 337 327 318 318 319 313 306 298 293 292 297 300 304 305 304 305 306 308 309 307 306 304 299 295 294 292 287 280 276
242 247 254 250 232 218 225 244 258 267 279 289 293 300 309 315 327 339 341 340 340 339 330 328 329 328 331 317 296 290 295 301 304 305 308 311 310 309 313 313 306 298 293 291 292 292 289 282 277
248 255 265 262 248 234 227 235 248 259 270 280 287 297 307 318 328 334 338 341 340 337 334 332 338 337 336 326 300 289 294 306 311 313 311 310 310 308 305 302 298 291 286 285 285 287 288 281 274
259 264 274 277 264 249 240 240 247 256 263 271 280 292 306 317 322 326 331 334 332 330 329 332 333 332 332 328 314 303 305 313 317 315 313 312 310 307 305 305 302 296 289 287 287 288 290 286 278
261 267 275 280 267 255 254 249 248 253 262 272 282 296 304 311 316 321 327 329 328 326 327 327 326 326 327 324 318 312 310 313 315 315 315 313 311 309 308 308 306 299 294 294 293 292 291 287 280
258 265 271 266 244 249 266 260 258 265 271 282 291 299 303 307 311 316 320 321 322 324 324 323 323 324 324 321 319 314 312 313 315 315 313 311 309 309 309 307 305 301 297 295 293 292 289 285 282
256 258 254 234 209 228 253 261 266 270 276 285 294 301 303 303 305 308 312 314 318 321 323 324 324 322 320 318 316 314 313 314 314 311 309 307 306 307 306 303 303 301 299 297 294 292 287 285 284
246 247 245 234 223 240 256 254 257 268 278 286 294 299 298 296 298 301 304 307 313 319 321 323 323 322 320 317 315 313 312 312 311 309 307 306 304 304 302 301 300 298 297 295 294 291 288 287 286
246 247 246 232 219 249 267 266 260 265 274 281 289 293 290 290 295 298 298 301 309 316 320 323 323 321 320 318 315 314 312 312 310 309 307 306 304 303 302 301 300 299 297 295 293 291 288 287 287
244 247 243 217 208 236 256 257 256 260 268 276 285 290 289 290 293 295 297 301 309 317 321 322 320 319 318 318 316 315 313 311 309 307 307 306 305 305 304 303 301 300 298 295 294 293 292 291 289
234 237 238 218 210 228 243 252 254 259 265 273 281 287 287 285 288 291 293 297 304 313 319 320 319 319 319 318 317 315 312 309 307 307 307 307 306 305 305 304 302 301 300 299 299 298 297 295 293
235 235 237 234 225 223 231 246 254 256 260 268 277 285 285 284 287 287 288 292 298 307 313 316 317 317 316 316 315 313 310 308 307 307 306 306 305 305 305 304 304 303 302 303 303 303 303 302 300
228 232 239 242 239 234 227 236 249 256 263 268 273 279 282 283 286 288 287 289 296 303 306 309 311 312 313 314 313 312 310 308 307 307 306 306 306 305 305 304 303 303 303 304 305 306 306 306 304
224 231 240 244 242 240 233 236 247 258 263 267 270 273 276 279 284 288 288 290 295 300 303 306 308 312 315 316 314 311 309 308 308 308 307 306 305 304 303 301 301 302 302 304 306 307 308 308 306
231 239 246 251 252 249 242 243 247 254 261 263 264 267 271 276 281 285 287 289 293 299 302 305 307 311 315 316 314 311 310 309 308 307 305 304 303 302 301 298 300 301 303 305 306 308 309 310 308
229 240 252 253 254 254 249 247 241 243 251 258 264 267 271 274 278 282 284 287 291 295 299 304 308 311 313 313 312 310 308 307 307 306 305 304 304 301 298 298 300 302 304 306 308 309 311 312 309
231 234 247 247 249 251 252 249 243 246 255 263 269 272 276 274 275 278 283 286 287 290 296 304 308 308 309 310 309 308 308 308 308 308 307 307 304 300 298 301 303 305 307 309 309 309 311 312 310
235 235 241 246 246 249 253 255 254 253 256 261 267 272 276 277 276 278 281 280 281 286 295 302 305 307 309 310 310 310 309 310 310 309 309 308 304 301 302 304 306 309 311 310 310 310 311 312 311
240 240 240 245 247 249 255 259 261 260 259 260 264 269 273 274 277 279 276 273 278 287 297 303 307 309 309 310 309 310 310 311 310 309 308 304 302 303 305 307 309 312 312 311 310 311 312 313 311
Height
5903 5905 5907 5909 5911 5910 5909 5910 5910 5909 5909 5910 5909 5906 5904 5905 5907 5907 5903 5900 5899 5897 5896 5896 5896 5896 5895 5895 5896 5896 5896 5896 5897 5897 5897 5896 5896 5895 5895 5894 5894 5894 5894 5894 5894 5893 5892 5891 5890
5903 5905 5907 5908 5909 5908 5910 5910 5909 5909 5907 5909 5911 5909 5906 5904 5905 5902 5899 5898 5896 5895 5894 5894 5893 5892 5892 5892 5893 5893 5894 5894 5893 5893 5893 5893 5893 5892 5892 5891 5891 5891 5890 5890 5890 5889 5888 5887 5886
5903 5905 5907 5906 5906 5907 5907 5905 5906 5907 5906 5906 5907 5907 5905 5904 5903 5899 5896 5895 5894 5893 5893 5892 5891 5890 5891 5891 5891 5891 5891 5890 5890 5889 5889 5889 5889 5889 5888 5887 5887 5887 5887 5886 5886 5886 5885 5883 5882
5903 5904 5905 5905 5904 5905 5903 5902 5903 5904 5906 5906 5905 5904 5903 5902 5900 5897 5894 5893 5892 5891 5890 5889 5889 5888 5889 5889 5889 5889 5888 5888 5887 5886 5886 5885 5885 5886 5885 5884 5883 5882 5881 5881 5880 5880 5880 5879 5877
5903 5904 5904 5904 5903 5902 5900 5899 5901 5903 5905 5905 5903 5901 5899 5900 5898 5895 5892 5891 5890 5890 5889 5888 5887 5887 5886 5887 5887 5886 5886 5885 5884 5883 5883 5882 5882 5881 5880 5879 5878 5877 5876 5875 5874 5874 5873 5873 5872
5903 5903 5904 5903 5902 5900 5899 5899 5902 5905 5903 5901 5900 5898 5897 5897 5897 5894 5891 5890 5889 5889 5888 5887 5886 5885 5884 5884 5883 5882 5882 5882 5881 5880 5880 5880 5879 5877 5876 5874 5872 5870 5870 5870 5869 5867 5866 5865 5865
5903 5903 5902 5901 5900 5898 5898 5900 5902 5903 5900 5899 5899 5897 5894 5893 5894 5892 5890 5888 5887 5887 5886 5885 5883 5882 5881 5881 5880 5879 5879 5878 5878 5877 5877 5875 5874 5872 5871 5869 5866 5865 5864 5863 5862 5861 5859 5858 5857
5903 5903 5901 5900 5900 5899 5899 5899 5900 5899 5898 5898 5898 5896 5893 5891 5891 5891 5890 5888 5887 5885 5884 5882 5881 5880 5879 5878 5878 5877 5876 5875 5874 5872 5871 5870 5868 5867 5865 5864 5862 5860 5859 5857 5856 5854 5852 5851 5850
5902 5902 5899 5899 5900 5902 5901 5901 5899 5897 5897 5898 5896 5894 5891 5889 5889 5889 5889 5888 5885 5883 5881 5880 5880 5879 5878 5877 5876 5874 5873 5871 5870 5868 5867 5865 5863 5862 5860 5859 5857 5856 5855 5853 5850 5848 5847 5845 5843
5899 5899 5898 5898 5898 5902 5901 5901 5898 5895 5895 5894 5893 5891 5888 5886 5885 5885 5886 5885 5882 5879 5878 5879 5879 5879 5878 5876 5874 5871 5869 5867 5866 5864 5862 5860 5858 5856 5854 5852 5852 5851 5849 5847 5844 5842 5840 5838 5837
5897 5898 5896 5895 5897 5900 5900 5899 5896 5894 5893 5893 5891 5889 5887 5885 5883 5883 5882 5881 5879 5877 5876 5876 5876 5876 5874 5872 5870 5867 5865 5863 5861 5859 5857 5855 5853 5850 5848 5846 5845 5844 5842 5840 5838 5836 5833 5831 5829
5895 5895 5895 5893 5894 5897 5897 5896 5894 5891 5892 5891 5888 5886 5884 5883 5882 5881 5880 5879 5877 5874 5872 5873 5872 5871 5870 5867 5864 5862 5860 5859 5857 5855 5853 5850 5847 5845 5842 5839 5837 5835 5833 5832 5830 5827 5825 5823 5821
5892 5892 5891 5890 5890 5892 5893 5893 5891 5889 5889 5888 5885 5883 5881 5879 5879 5880 5879 5877 5873 5870 5868 5868 5868 5866 5864 5862 5861 5859 5856 5854 5851 5849 5846 5844 5841 5839 5835 5832 5830 5828 5825 5824 5822 5819 5817 5814 5812
5887 5887 5888 5887 5887 5887 5889 5889 5888 5886 5886 5884 5882 5879 5878 5876 5876 5876 5876 5875 5872 5868 5866 5865 5863 5860 5858 5856 5855 5854 5851 5846 5843 5841 5840 5837 5834 5832 5829 5827 5824 5822 5819 5817 5814 5811 5808 5805 5802
5883 5884 5885 5885 5883 5884 5885 5886 5886 5883 5882 5881 5878 5876 5875 5874 5873 5871 5871 5870 5867 5863 5860 5858 5856 5854 5851 5850 5848 5846 5842 5839 5836 5834 5832 5829 5827 5824 5820 5817 5814 5811 5808 5806 5802 5799 5796 5793 5790
5880 5881 5882 5881 5880 5881 5882 5883 5881 5878 5878 5877 5874 5872 5872 5872 5870 5868 5866 5865 5862 5859 5856 5854 5852 5850 5847 5844 5842 5840 5836 5833 5830 5827 5824 5821 5818 5815 5812 5809 5805 5801 5798 5794 5790 5786 5782 5779 5776
5875 5876 5876 5877 5877 5877 5877 5877 5876 5873 5874 5873 5871 5870 5868 5867 5866 5865 5863 5861 5858 5856 5853 5851 5848 5845 5842 5839 5836 5833 5830 5827 5824 5820 5817 5813 5810 5806 5802 5799 5795 5792 5788 5783 5779 5775 5770 5767 5763
5870 5869 5871 5872 5871 5871 5870 5870 5870 5868 5869 5870 5869 5868 5866 5865 5863 5862 5860 5857 5854 5852 5849 5846 5842 5838 5835 5832 5830 5827 5824 5820 5817 5813 5810 5806 5801 5797 5793 5789 5785 5781 5776 5771 5767 5763 5759 5755 5750
5861 5862 5864 5867 5866 5864 5863 5863 5862 5863 5865 5866 5866 5866 5864 5863 5861 5859 5856 5854 5851 5848 5844 5840 5835 5832 5829 5826 5823 5820 5816 5813 5809 5805 5801 5797 5793 5789 5784 5779 5775 5771 5766 5761 5756 5752 5746 5740 5735
5854 5855 5858 5861 5861 5859 5858 5857 5857 5859 5861 5862 5863 5863 5861 5859 5857 5855 5853 5850 5848 5844 5838 5833 5829 5825 5822 5820 5816 5813 5808 5803 5799 5795 5791 5787 5783 5779 5773 5768 5763 5758 5753 5747 5741 5736 5730 5724 5716
5847 5849 5852 5854 5856 5855 5855 5854 5853 5854 5856 5858 5859 5859 5857 5855 5853 5850 5847 5845 5842 5838 5833 5828 5824 5820 5817 5813 5809 5805 5800 5795 5791 5787 5782 5777 5772 5766 5761 5755 5749 5743 5736 5730 5723 5717 5710 5704 5696
5839 5843 5845 5847 5849 5850 5851 5850 5848 5848 5850 5852 5854 5855 5854 5851 5849 5846 5842 5840 5837 5834 5829 5824 5819 5815 5810 5806 5802 5797 5793 5788 5783 5777 5772 5765 5759 5753 5747 5741 5734 5727 5719 5712 5705 5697 5690 5683 5675
5833 5836 5838 5840 5841 5843 5844 5844 5840 5840 5842 5845 5847 5848 5847 5846 5844 5841 5837 5835 5832 5828 5823 5818 5813 5807 5803 5799 5795 5790 5785 5779 5773 5766 5760 5754 5747 5740 5733 5726 5718 5711 5703 5696 5688 5681 5674 5666 5658
5827 5829 5831 5832 5833 5833 5837 5837 5833 5832 5836 5839 5841 5841 5840 5839 5837 5834 5832 5829 5825 5821 5816 5812 5806 5801 5797 5793 5787 5781 5775 5768 5762 5756 5749 5743 5735 5727 5719 5711 5704 5697 5690 5683 5676 5669 5662 5655 5647
5820 5822 5823 5824 5824 5825 5832 5830 5828 5827 5829 5831 5833 5834 5833 5831 5830 5827 5825 5822 5818 5814 5809 5803 5798 5793 5789 5784 5778 5771 5765 5758 5751 5744 5737 5730 5723 5715 5708 5699 5692 5686 5679 5673 5666 5659 5652 5645 5638
5814 5815 5816 5817 5818 5820 5823 5822 5823 5822 5820 5822 5824 5824 5824 5823 5822 5820 5817 5814 5810 5805 5800 5795 5790 5785 5780 5774 5768 5761 5755 5748 5741 5734 5726 5719 5711 5703 5695 5688 5681 5675 5669 5662 5656 5649 5642 5635 5628
5805 5807 5810 5811 5810 5811 5812 5812 5813 5813 5814 5815 5815 5816 5816 5815 5815 5812 5809 5806 5802 5798 5792 5787 5782 5778 5772 5766 5760 5753 5747 5739 5731 5723 5714 5705 5697 5688 5681 5676 5670 5665 5659 5652 5645 5639 5631 5625 5618
5798 5801 5803 5802 5803 5803 5804 5804 5806 5808 5808 5808 5807 5807 5807 5807 5807 5805 5802 5799 5795 5789 5783 5780 5776 5771 5765 5758 5751 5744 5736 5728 5719 5710 5700 5691 5682 5675 5671 5666 5660 5655 5649 5642 5635 5628 5620 5613 5605
5793 5794 5795 5795 5796 5797 5797 5799 5801 5802 5801 5799 5798 5798 5798 5799 5799 5797 5794 5790 5785 5779 5776 5772 5767 5762 5755 5748 5740 5732 5724 5715 5706 5697 5687 5678 5672 5667 5662 5657 5651 5645 5638 5631 5624 5616 5608 5600 5592
5786 5787 5788 5788 5789 5790 5791 5794 5794 5794 5792 5791 5790 5790 5790 5790 5790 5789 5785 5779 5774 5771 5768 5763 5758 5752 5745 5737 5729 5721 5712 5703 5694 5685 5676 5669 5664 5659 5653 5647 5641 5635 5627 5619 5611 5603 5595 5587 5579